Location: Shepherdstown, WV
(39.4326°N, 77.8042°W)
Time: 01:49:25
(UTC-04:00)

X-37B - Pass Details

Date: 24 June 2021
Orbit: 383 x 392 km, 45.0° (Epoch: 01 July)

Event Time Altitude Azimuth Distance (km) Brightness Sun altitude
Rises 23:17:38 0° 274° (W) 2,253 4.9 -21.6°
Reaches altitude 10° 23:19:50 10° 285° (WNW) 1,400 3.9 -21.8°
Maximum altitude 23:22:42 32° 351° (N) 690 2.4 -22.0°
Enters shadow 23:24:16 20° 40° (NE) 956 2.8 -22.2°
